Time,TemperatureF,DewpointF,PressureIn,WindDirection,WindDirectionDegrees,WindSpeedMPH,WindSpeedGustMPH,Humidity,HourlyPrecipIn,Conditions,Clouds,dailyrainin,SoftwareType,DateUTC
2013-06-16 00:01:00,64.0,57.7,30.03,North,0,1.1,0.0,80,0.00,CLR,,0.00,WeatherDisplay:10.37,2013-06-16 04:01:00,
2013-06-16 00:02:00,64.0,57.7,30.03,North,0,1.1,0.0,80,0.00,CLR,,0.00,WeatherDisplay:10.37,2013-06-16 04:02:00,
2013-06-16 00:03:00,64.0,57.7,30.03,North,0,0.0,0.0,80,0.00,CLR,,0.00,WeatherDisplay:10.37,2013-06-16 04:03:00,
2013-06-16 00:08:00,63.9,58.3,30.02,North,0,0.0,0.0,82,0.00,CLR,,0.00,WeatherDisplay:10.37,2013-06-16 04:08:00,
2013-06-16 00:13:00,63.9,58.6,30.02,North,0,0.0,0.0,83,0.00,CLR,,0.00,WeatherDisplay:10.37,2013-06-16 04:13:00,
2013-06-16 00:18:00,63.7,57.7,30.02,North,0,0.0,0.0,81,0.00,CLR,,0.00,WeatherDisplay:10.37,2013-06-16 04:18:00,
2013-06-16 00:23:00,63.9,57.2,30.02,North,0,0.0,0.0,79,0.00,CLR,,0.00,WeatherDisplay:10.37,2013-06-16 04:23:00,
2013-06-16 00:28:00,64.0,57.4,30.02,North,0,0.0,0.0,79,0.00,CLR,,0.00,WeatherDisplay:10.37,2013-06-16 04:28:00,
2013-06-16 00:33:00,64.0,57.7,30.02,North,0,0.0,0.0,80,0.00,CLR,,0.00,WeatherDisplay:10.37,2013-06-16 04:33:00,
2013-06-16 00:38:00,64.2,57.9,30.02,North,0,0.0,0.0,80,0.00,CLR,,0.00,WeatherDisplay:10.37,2013-06-16 04:38:00,
2013-06-16 00:43:00,64.2,57.6,30.02,NE,45,0.0,0.0,79,0.00,CLR,,0.00,WeatherDisplay:10.37,2013-06-16 04:43:00,
2013-06-16 00:48:00,64.4,57.7,30.02,NE,45,1.1,0.0,79,0.00,CLR,,0.00,WeatherDisplay:10.37,2013-06-16 04:48:00,
2013-06-16 00:53:00,64.4,57.7,30.02,NE,45,0.0,0.0,79,0.00,CLR,,0.00,WeatherDisplay:10.37,2013-06-16 04:53:00,
2013-06-16 00:58:00,64.4,57.7,30.02,South,180,1.1,0.0,79,0.00,CLR,,0.00,WeatherDisplay:10.37,2013-06-16 04:58:00,
2013-06-16 01:03:00,64.4,57.4,30.02,South,180,0.0,0.0,78,0.00,CLR,,0.00,WeatherDisplay:10.37,2013-06-16 05:03:00,
2013-06-16 01:08:00,64.4,57.4,30.02,South,180,0.0,0.0,78,0.00,CLR,,0.00,WeatherDisplay:10.37,2013-06-16 05:08:00,
2013-06-16 01:13:00,64.4,57.4,30.01,West,270,0.0,0.0,78,0.00,CLR,,0.00,WeatherDisplay:10.37,2013-06-16 05:13:00,
2013-06-16 01:18:00,64.6,57.6,30.02,South,180,1.1,0.0,78,0.00,CLR,,0.00,WeatherDisplay:10.37,2013-06-16 05:18:00,
2013-06-16 01:23:00,64.6,57.9,30.01,South,180,0.0,0.0,79,0.00,CLR,,0.00,WeatherDisplay:10.37,2013-06-16 05:23:00,
2013-06-16 01:28:00,64.6,57.9,30.02,South,180,0.0,0.0,79,0.00,CLR,,0.00,WeatherDisplay:10.37,2013-06-16 05:28:00,
2013-06-16 01:33:00,64.4,57.7,30.02,SE,135,0.0,0.0,79,0.00,CLR,,0.00,WeatherDisplay:10.37,2013-06-16 05:33:00,
2013-06-16 01:38:00,64.4,57.7,30.01,SW,225,0.0,0.0,79,0.00,CLR,,0.00,WeatherDisplay:10.37,2013-06-16 05:38:00,
2013-06-16 01:43:00,64.4,57.7,30.01,South,180,0.0,0.0,79,0.00,CLR,,0.00,WeatherDisplay:10.37,2013-06-16 05:43:00,
2013-06-16 01:48:00,64.2,57.9,30.01,South,180,0.0,0.0,80,0.00,CLR,,0.00,WeatherDisplay:10.37,2013-06-16 05:48:00,
2013-06-16 01:53:00,64.0,57.7,30.01,South,180,0.0,0.0,80,0.00,CLR,,0.00,WeatherDisplay:10.37,2013-06-16 05:53:00,
2013-06-16 01:58:00,63.9,57.9,30.01,SW,225,0.0,0.0,81,0.00,CLR,,0.00,WeatherDisplay:10.37,2013-06-16 05:58:00,
2013-06-16 02:03:00,63.7,58.1,30.01,SW,225,0.0,0.0,82,0.00,FEW,,0.00,WeatherDisplay:10.37,2013-06-16 06:03:00,
2013-06-16 02:08:00,63.5,58.2,30.01,SW,225,0.0,0.0,83,0.00,FEW,,0.00,WeatherDisplay:10.37,2013-06-16 06:08:00,
2013-06-16 02:13:00,63.5,58.2,30.01,SW,225,0.0,0.0,83,0.00,FEW,,0.00,WeatherDisplay:10.37,2013-06-16 06:13:00,
2013-06-16 02:18:00,63.5,58.2,30.01,SW,225,0.0,0.0,83,0.00,FEW,,0.00,WeatherDisplay:10.37,2013-06-16 06:18:00,
2013-06-16 02:23:00,63.3,58.1,30.01,SW,225,0.0,0.0,83,0.00,FEW,,0.00,WeatherDisplay:10.37,2013-06-16 06:23:00,
2013-06-16 02:28:00,63.1,57.9,30.01,SW,225,0.0,0.0,83,0.00,FEW,,0.00,WeatherDisplay:10.37,2013-06-16 06:28:00,
2013-06-16 02:33:00,63.0,58.0,30.01,SW,225,0.0,0.0,84,0.00,FEW,,0.00,WeatherDisplay:10.37,2013-06-16 06:33:00,
2013-06-16 02:38:00,63.0,58.0,30.01,SW,225,0.0,0.0,84,0.00,FEW,,0.00,WeatherDisplay:10.37,2013-06-16 06:38:00,
2013-06-16 02:43:00,62.8,58.2,30.01,North,0,0.0,0.0,85,0.00,FEW,,0.00,WeatherDisplay:10.37,2013-06-16 06:43:00,
2013-06-16 02:48:00,62.8,58.2,30.01,North,0,0.0,0.0,85,0.00,FEW,,0.00,WeatherDisplay:10.37,2013-06-16 06:48:00,
2013-06-16 02:53:00,62.6,58.0,30.00,North,0,0.0,0.0,85,0.00,FEW,,0.00,WeatherDisplay:10.37,2013-06-16 06:53:00,
2013-06-16 02:58:00,62.6,58.0,30.01,West,270,0.0,0.0,85,0.00,FEW,,0.00,WeatherDisplay:10.37,2013-06-16 06:58:00,
2013-06-16 03:03:00,62.6,58.4,30.01,West,270,0.0,0.0,86,0.00,FEW,,0.00,WeatherDisplay:10.37,2013-06-16 07:03:00,
2013-06-16 03:08:00,62.8,58.5,30.00,West,270,0.0,0.0,86,0.00,FEW,,0.00,WeatherDisplay:10.37,2013-06-16 07:08:00,
2013-06-16 03:13:00,62.8,58.5,30.00,West,270,0.0,0.0,86,0.00,FEW,,0.00,WeatherDisplay:10.37,2013-06-16 07:13:00,
2013-06-16 03:18:00,63.0,58.7,30.00,West,270,0.0,0.0,86,0.00,FEW,,0.00,WeatherDisplay:10.37,2013-06-16 07:18:00,
2013-06-16 03:23:00,63.0,58.4,30.00,West,270,0.0,0.0,85,0.00,FEW,,0.00,WeatherDisplay:10.37,2013-06-16 07:23:00,
2013-06-16 03:28:00,63.1,58.6,30.00,West,270,0.0,0.0,85,0.00,FEW,,0.00,WeatherDisplay:10.37,2013-06-16 07:28:00,
2013-06-16 03:33:00,63.1,58.6,30.00,West,270,0.0,0.0,85,0.00,FEW,,0.00,WeatherDisplay:10.37,2013-06-16 07:33:00,
2013-06-16 03:38:00,63.3,59.1,29.99,South,180,0.0,0.0,86,0.00,FEW,,0.00,WeatherDisplay:10.37,2013-06-16 07:38:00,
2013-06-16 03:43:00,63.5,59.2,29.99,South,180,0.0,0.0,86,0.00,FEW,,0.00,WeatherDisplay:10.37,2013-06-16 07:43:00,
2013-06-16 03:48:00,63.5,58.9,29.99,South,180,0.0,0.0,85,0.00,FEW,,0.00,WeatherDisplay:10.37,2013-06-16 07:48:00,
2013-06-16 03:53:00,63.5,58.9,29.99,South,180,0.0,0.0,85,0.00,FEW,,0.00,WeatherDisplay:10.37,2013-06-16 07:53:00,
2013-06-16 03:58:00,63.7,59.1,29.99,South,180,0.0,0.0,85,0.00,FEW,,0.00,WeatherDisplay:10.37,2013-06-16 07:58:00,
2013-06-16 04:03:00,63.7,59.1,29.99,South,180,0.0,0.0,85,0.00,BKN,,0.00,WeatherDisplay:10.37,2013-06-16 08:03:00,
2013-06-16 04:08:00,63.5,58.9,29.99,South,180,0.0,0.0,85,0.00,BKN,,0.00,WeatherDisplay:10.37,2013-06-16 08:08:00,
2013-06-16 04:13:00,63.5,58.9,29.99,West,270,0.0,0.0,85,0.00,BKN,,0.00,WeatherDisplay:10.37,2013-06-16 08:13:00,
2013-06-16 04:18:00,63.5,59.2,29.99,West,270,1.1,0.0,86,0.00,BKN,,0.00,WeatherDisplay:10.37,2013-06-16 08:18:00,
2013-06-16 04:23:00,63.5,59.6,29.99,West,270,0.0,0.0,87,0.00,BKN,,0.00,WeatherDisplay:10.37,2013-06-16 08:23:00,
2013-06-16 04:28:00,63.5,59.2,29.99,West,270,0.0,0.0,86,0.00,BKN,,0.00,WeatherDisplay:10.37,2013-06-16 08:28:00,
2013-06-16 04:33:00,63.3,59.1,29.99,West,270,1.1,0.0,86,0.00,BKN,,0.00,WeatherDisplay:10.37,2013-06-16 08:33:00,
2013-06-16 04:38:00,63.3,59.1,29.99,West,270,0.0,0.0,86,0.00,BKN,,0.00,WeatherDisplay:10.37,2013-06-16 08:38:00,
2013-06-16 04:43:00,63.3,59.1,29.99,West,270,0.0,0.0,86,0.00,BKN,,0.00,WeatherDisplay:10.37,2013-06-16 08:43:00,
2013-06-16 04:48:00,63.3,59.1,29.99,West,270,0.0,0.0,86,0.00,BKN,,0.00,WeatherDisplay:10.37,2013-06-16 08:48:00,
2013-06-16 04:53:00,63.5,58.9,29.99,West,270,0.0,0.0,85,0.00,BKN,,0.00,WeatherDisplay:10.37,2013-06-16 08:53:00,
2013-06-16 04:58:00,63.5,58.9,29.99,West,270,0.0,0.0,85,0.00,BKN,,0.00,WeatherDisplay:10.37,2013-06-16 08:58:00,
2013-06-16 05:03:00,63.5,58.9,29.99,West,270,0.0,0.0,85,0.00,BKN,,0.00,WeatherDisplay:10.37,2013-06-16 09:03:00,
2013-06-16 05:08:00,63.3,58.7,29.99,West,270,0.0,0.0,85,0.00,BKN,,0.00,WeatherDisplay:10.37,2013-06-16 09:08:00,
2013-06-16 05:13:00,63.3,59.1,29.99,West,270,0.0,0.0,86,0.00,BKN,,0.00,WeatherDisplay:10.37,2013-06-16 09:13:00,
2013-06-16 05:18:00,63.3,59.1,29.99,SE,135,0.0,0.0,86,0.00,BKN,,0.00,WeatherDisplay:10.37,2013-06-16 09:18:00,
2013-06-16 05:23:00,63.3,59.1,29.99,SE,135,0.0,0.0,86,0.00,BKN,,0.00,WeatherDisplay:10.37,2013-06-16 09:23:00,
2013-06-16 05:28:00,63.3,59.1,29.99,SE,135,0.0,0.0,86,0.00,BKN,,0.00,WeatherDisplay:10.37,2013-06-16 09:28:00,
2013-06-16 05:33:00,63.3,59.1,29.99,SE,135,0.0,0.0,86,0.00,BKN,,0.00,WeatherDisplay:10.37,2013-06-16 09:33:00,
2013-06-16 05:38:00,63.3,59.1,29.99,SE,135,0.0,0.0,86,0.00,BKN,,0.00,WeatherDisplay:10.37,2013-06-16 09:38:00,
2013-06-16 05:43:00,63.3,59.1,29.99,SE,135,0.0,0.0,86,0.00,BKN,,0.00,WeatherDisplay:10.37,2013-06-16 09:43:00,
2013-06-16 05:48:00,63.3,59.1,29.99,SE,135,0.0,0.0,86,0.00,BKN,,0.00,WeatherDisplay:10.37,2013-06-16 09:48:00,
2013-06-16 05:53:00,63.3,59.1,29.99,SE,135,0.0,0.0,86,0.00,BKN,,0.00,WeatherDisplay:10.37,2013-06-16 09:53:00,
2013-06-16 05:58:00,63.3,59.1,29.99,SE,135,0.0,0.0,86,0.00,BKN,,0.00,WeatherDisplay:10.37,2013-06-16 09:58:00,
2013-06-16 06:03:00,63.3,59.1,29.99,SE,135,0.0,0.0,86,0.00,CLR,,0.00,WeatherDisplay:10.37,2013-06-16 10:03:00,
2013-06-16 06:08:00,63.3,59.1,29.99,SE,135,0.0,0.0,86,0.00,CLR,,0.00,WeatherDisplay:10.37,2013-06-16 10:08:00,
2013-06-16 06:13:00,63.3,59.1,29.99,SE,135,0.0,0.0,86,0.00,CLR,,0.00,WeatherDisplay:10.37,2013-06-16 10:13:00,
2013-06-16 06:18:00,63.3,59.1,29.99,SE,135,0.0,0.0,86,0.00,CLR,,0.00,WeatherDisplay:10.37,2013-06-16 10:18:00,
2013-06-16 06:23:00,63.3,59.1,29.99,SE,135,0.0,0.0,86,0.00,CLR,,0.00,WeatherDisplay:10.37,2013-06-16 10:23:00,
2013-06-16 06:28:00,63.3,59.1,29.99,SE,135,0.0,0.0,86,0.00,CLR,,0.00,WeatherDisplay:10.37,2013-06-16 10:28:00,
2013-06-16 06:33:00,63.3,59.1,29.99,SE,135,0.0,0.0,86,0.00,CLR,,0.00,WeatherDisplay:10.37,2013-06-16 10:33:00,
2013-06-16 06:38:00,63.3,59.1,29.99,SE,135,0.0,0.0,86,0.00,CLR,,0.00,WeatherDisplay:10.37,2013-06-16 10:38:00,
2013-06-16 06:43:00,63.3,59.1,29.99,SE,135,0.0,0.0,86,0.00,CLR,,0.00,WeatherDisplay:10.37,2013-06-16 10:43:00,
2013-06-16 06:48:00,63.3,59.1,29.99,SE,135,0.0,0.0,86,0.00,CLR,,0.00,WeatherDisplay:10.37,2013-06-16 10:48:00,
2013-06-16 06:53:00,63.3,59.1,29.99,SE,135,0.0,0.0,86,0.00,CLR,,0.00,WeatherDisplay:10.37,2013-06-16 10:53:00,
2013-06-16 06:58:00,63.3,59.1,29.99,SE,135,0.0,0.0,86,0.00,CLR,,0.00,WeatherDisplay:10.37,2013-06-16 10:58:00,
2013-06-16 07:03:00,63.3,59.1,29.99,SE,135,0.0,0.0,86,0.00,OVC,,0.00,WeatherDisplay:10.37,2013-06-16 11:03:00,
2013-06-16 07:08:00,63.3,59.1,29.99,SE,135,0.0,0.0,86,0.00,OVC,,0.00,WeatherDisplay:10.37,2013-06-16 11:08:00,
2013-06-16 07:13:00,63.3,59.1,29.99,SE,135,0.0,0.0,86,0.00,OVC,,0.00,WeatherDisplay:10.37,2013-06-16 11:13:00,
2013-06-16 07:18:00,63.3,59.1,29.99,SE,135,0.0,0.0,86,0.00,OVC,,0.00,WeatherDisplay:10.37,2013-06-16 11:18:00,
2013-06-16 07:23:00,63.3,59.1,29.99,SE,135,0.0,0.0,86,0.00,OVC,,0.00,WeatherDisplay:10.37,2013-06-16 11:23:00,
2013-06-16 07:28:00,63.3,59.1,29.99,SE,135,0.0,0.0,86,0.00,OVC,,0.00,WeatherDisplay:10.37,2013-06-16 11:28:00,
2013-06-16 07:33:00,63.3,59.1,29.99,SE,135,0.0,0.0,86,0.00,OVC,,0.00,WeatherDisplay:10.37,2013-06-16 11:33:00,
2013-06-16 07:38:00,63.3,59.1,29.99,SE,135,0.0,0.0,86,0.00,OVC,,0.00,WeatherDisplay:10.37,2013-06-16 11:38:00,
2013-06-16 07:43:00,63.3,59.1,29.99,SE,135,0.0,0.0,86,0.00,OVC,,0.00,WeatherDisplay:10.37,2013-06-16 11:43:00,
2013-06-16 07:48:00,63.3,59.1,29.99,SE,135,0.0,0.0,86,0.00,OVC,,0.00,WeatherDisplay:10.37,2013-06-16 11:48:00,
2013-06-16 07:53:00,63.3,59.1,29.99,SE,135,0.0,0.0,86,0.00,OVC,,0.00,WeatherDisplay:10.37,2013-06-16 11:53:00,
2013-06-16 07:58:00,63.3,59.1,29.99,SE,135,0.0,0.0,86,0.00,OVC,,0.00,WeatherDisplay:10.37,2013-06-16 11:58:00,
2013-06-16 08:03:00,63.3,59.1,29.99,SE,135,0.0,0.0,86,0.00,OVC,,0.00,WeatherDisplay:10.37,2013-06-16 12:03:00,
2013-06-16 08:08:00,63.3,59.1,29.99,SE,135,0.0,0.0,86,0.00,OVC,,0.00,WeatherDisplay:10.37,2013-06-16 12:08:00,
2013-06-16 08:13:00,63.3,59.1,29.99,SE,135,0.0,0.0,86,0.00,OVC,,0.00,WeatherDisplay:10.37,2013-06-16 12:13:00,
2013-06-16 08:18:00,63.3,59.1,29.99,SE,135,0.0,0.0,86,0.00,OVC,,0.00,WeatherDisplay:10.37,2013-06-16 12:18:00,
2013-06-16 08:23:00,63.3,59.1,29.99,SE,135,0.0,0.0,86,0.00,OVC,,0.00,WeatherDisplay:10.37,2013-06-16 12:23:00,
2013-06-16 08:28:00,63.3,59.1,29.99,SE,135,0.0,0.0,86,0.00,OVC,,0.00,WeatherDisplay:10.37,2013-06-16 12:28:00,
2013-06-16 08:33:00,63.3,59.1,29.99,SE,135,0.0,0.0,86,0.00,OVC,,0.00,WeatherDisplay:10.37,2013-06-16 12:33:00,
2013-06-16 08:38:00,63.3,59.1,29.99,SE,135,0.0,0.0,86,0.00,OVC,,0.00,WeatherDisplay:10.37,2013-06-16 12:38:00,
2013-06-16 08:43:00,63.3,59.1,29.99,SE,135,0.0,0.0,86,0.00,OVC,,0.00,WeatherDisplay:10.37,2013-06-16 12:43:00,
2013-06-16 08:48:00,63.3,59.1,29.99,SE,135,0.0,0.0,86,0.00,OVC,,0.00,WeatherDisplay:10.37,2013-06-16 12:48:00,
2013-06-16 08:53:00,63.3,59.1,29.99,SE,135,0.0,0.0,86,0.00,OVC,,0.00,WeatherDisplay:10.37,2013-06-16 12:53:00,
2013-06-16 08:58:00,63.3,59.1,29.99,SE,135,0.0,0.0,86,0.00,OVC,,0.00,WeatherDisplay:10.37,2013-06-16 12:58:00,
2013-06-16 09:03:00,63.3,59.1,29.99,SE,135,0.0,0.0,86,0.00,BKN,,0.00,WeatherDisplay:10.37,2013-06-16 13:03:00,
2013-06-16 09:08:00,63.3,59.1,29.99,SE,135,0.0,0.0,86,0.00,BKN,,0.00,WeatherDisplay:10.37,2013-06-16 13:08:00,
2013-06-16 09:13:00,63.3,59.1,29.99,SE,135,0.0,0.0,86,0.00,BKN,,0.00,WeatherDisplay:10.37,2013-06-16 13:13:00,
2013-06-16 09:18:00,63.3,59.1,29.99,SE,135,0.0,0.0,86,0.00,BKN,,0.00,WeatherDisplay:10.37,2013-06-16 13:18:00,
2013-06-16 09:23:00,73.9,61.9,29.97,West,270,1.1,0.0,66,0.00,BKN,,0.00,WeatherDisplay:10.37,2013-06-16 13:23:00,
2013-06-16 09:28:00,72.9,61.7,29.98,West,270,0.0,0.0,68,0.00,BKN,,0.00,WeatherDisplay:10.37,2013-06-16 13:28:00,
2013-06-16 09:33:00,72.0,61.2,29.98,West,270,1.1,0.0,69,0.00,BKN,,0.00,WeatherDisplay:10.37,2013-06-16 13:33:00,
2013-06-16 09:38:00,71.6,61.7,29.97,West,270,0.0,0.0,71,0.00,BKN,,0.00,WeatherDisplay:10.37,2013-06-16 13:38:00,
2013-06-16 09:43:00,72.0,62.8,29.97,West,270,0.0,0.0,73,0.00,BKN,,0.00,WeatherDisplay:10.37,2013-06-16 13:43:00,
2013-06-16 09:48:00,72.7,62.7,29.97,West,270,1.1,0.0,71,0.00,BKN,,0.00,WeatherDisplay:10.37,2013-06-16 13:48:00,
2013-06-16 09:53:00,73.6,63.2,29.96,West,270,1.1,0.0,70,0.00,BKN,,0.00,WeatherDisplay:10.37,2013-06-16 13:53:00,
2013-06-16 09:58:00,73.9,63.1,29.96,West,270,1.1,0.0,69,0.00,BKN,,0.00,WeatherDisplay:10.37,2013-06-16 13:58:00,
2013-06-16 10:03:00,74.5,63.6,29.96,West,270,1.1,0.0,69,0.00,OVC,,0.00,WeatherDisplay:10.37,2013-06-16 14:03:00,
2013-06-16 10:08:00,75.2,64.3,29.96,West,270,1.1,0.0,69,0.00,OVC,,0.00,WeatherDisplay:10.37,2013-06-16 14:08:00,
2013-06-16 10:13:00,75.9,63.7,29.96,West,270,2.3,2.3,66,0.00,OVC,,0.00,WeatherDisplay:10.37,2013-06-16 14:13:00,
2013-06-16 10:18:00,76.3,64.1,29.95,SW,225,1.1,0.0,66,0.00,OVC,,0.00,WeatherDisplay:10.37,2013-06-16 14:18:00,
2013-06-16 10:23:00,77.2,64.5,29.95,West,270,1.1,0.0,65,0.00,OVC,,0.00,WeatherDisplay:10.37,2013-06-16 14:23:00,
2013-06-16 10:28:00,77.7,64.1,29.95,West,270,2.3,2.3,63,0.00,OVC,,0.00,WeatherDisplay:10.37,2013-06-16 14:28:00,
2013-06-16 10:33:00,77.7,63.7,29.95,West,270,2.3,2.3,62,0.00,OVC,,0.00,WeatherDisplay:10.37,2013-06-16 14:33:00,
2013-06-16 10:38:00,76.8,63.3,29.95,West,270,1.1,1.1,63,0.00,OVC,,0.00,WeatherDisplay:10.37,2013-06-16 14:38:00,
2013-06-16 10:43:00,77.7,64.6,29.95,West,270,1.1,1.1,64,0.00,OVC,,0.00,WeatherDisplay:10.37,2013-06-16 14:43:00,
2013-06-16 10:48:00,78.8,64.7,29.94,West,270,1.1,1.1,62,0.00,OVC,,0.00,WeatherDisplay:10.37,2013-06-16 14:48:00,
2013-06-16 10:53:00,79.7,64.6,29.94,West,270,2.3,2.3,60,0.00,OVC,,0.00,WeatherDisplay:10.37,2013-06-16 14:53:00,
2013-06-16 10:58:00,79.7,64.1,29.94,West,270,2.3,2.3,59,0.00,OVC,,0.00,WeatherDisplay:10.37,2013-06-16 14:58:00,
2013-06-16 11:03:00,79.0,63.9,29.94,NW,315,2.3,2.3,60,0.00,BKN,,0.00,WeatherDisplay:10.37,2013-06-16 15:03:00,
2013-06-16 11:08:00,78.3,63.7,29.94,West,270,2.3,0.0,61,0.00,BKN,,0.00,WeatherDisplay:10.37,2013-06-16 15:08:00,
2013-06-16 11:13:00,78.4,64.3,29.94,West,270,1.1,0.0,62,0.00,BKN,,0.00,WeatherDisplay:10.37,2013-06-16 15:13:00,
2013-06-16 11:18:00,79.0,65.3,29.93,West,270,2.3,0.0,63,0.00,BKN,,0.00,WeatherDisplay:10.37,2013-06-16 15:18:00,
2013-06-16 11:23:00,79.0,64.8,29.93,NW,315,1.1,0.0,62,0.00,BKN,,0.00,WeatherDisplay:10.37,2013-06-16 15:23:00,
2013-06-16 11:28:00,79.3,65.2,29.93,West,270,1.1,1.1,62,0.00,BKN,,0.00,WeatherDisplay:10.37,2013-06-16 15:28:00,
2013-06-16 11:33:00,79.5,65.4,29.93,SW,225,3.5,0.0,62,0.00,BKN,,0.00,WeatherDisplay:10.37,2013-06-16 15:33:00,
2013-06-16 11:38:00,79.9,65.2,29.92,West,270,2.3,2.3,61,0.00,BKN,,0.00,WeatherDisplay:10.37,2013-06-16 15:38:00,
2013-06-16 11:43:00,80.1,65.9,29.93,SW,225,3.5,0.0,62,0.00,BKN,,0.00,WeatherDisplay:10.37,2013-06-16 15:43:00,
2013-06-16 11:48:00,80.1,66.3,29.93,South,180,1.1,0.0,63,0.00,BKN,,0.00,WeatherDisplay:10.37,2013-06-16 15:48:00,
2013-06-16 11:53:00,79.9,66.2,29.92,NW,315,2.3,2.3,63,0.00,BKN,,0.00,WeatherDisplay:10.37,2013-06-16 15:53:00,
2013-06-16 11:58:00,79.9,66.2,29.92,NW,315,2.3,2.3,63,0.00,BKN,,0.00,WeatherDisplay:10.37,2013-06-16 15:58:00,
2013-06-16 12:03:00,80.1,66.3,29.92,West,270,3.5,3.5,63,0.00,BKN,,0.00,WeatherDisplay:10.37,2013-06-16 16:03:00,
2013-06-16 12:08:00,80.6,66.8,29.92,West,270,1.1,0.0,63,0.00,BKN,,0.00,WeatherDisplay:10.37,2013-06-16 16:08:00,
2013-06-16 12:13:00,81.5,67.2,29.92,West,270,3.5,3.5,62,0.00,BKN,,0.00,WeatherDisplay:10.37,2013-06-16 16:13:00,
2013-06-16 12:18:00,81.1,66.9,29.92,West,270,3.5,3.5,62,0.00,SCT,,0.00,WeatherDisplay:10.37,2013-06-16 16:18:00,
2013-06-16 12:23:00,80.4,66.2,29.92,West,270,2.3,2.3,62,0.00,SCT,,0.00,WeatherDisplay:10.37,2013-06-16 16:23:00,
2013-06-16 12:28:00,80.1,66.3,29.92,West,270,3.5,3.5,63,0.00,SCT,,0.00,WeatherDisplay:10.37,2013-06-16 16:28:00,
2013-06-16 12:33:00,79.9,66.6,29.91,West,270,3.5,3.5,64,0.00,SCT,,0.00,WeatherDisplay:10.37,2013-06-16 16:33:00,
2013-06-16 12:38:00,79.9,66.6,29.91,West,270,3.5,3.5,64,0.00,SCT,,0.00,WeatherDisplay:10.37,2013-06-16 16:38:00,
2013-06-16 12:43:00,80.1,67.2,29.90,West,270,3.5,3.5,65,0.00,SCT,,0.00,WeatherDisplay:10.37,2013-06-16 16:43:00,
2013-06-16 12:48:00,80.4,67.1,29.90,West,270,2.3,2.3,64,0.00,SCT,,0.00,WeatherDisplay:10.37,2013-06-16 16:48:00,
2013-06-16 12:53:00,80.6,67.7,29.90,West,270,2.3,2.3,65,0.00,SCT,,0.00,WeatherDisplay:10.37,2013-06-16 16:53:00,
2013-06-16 12:58:00,81.1,67.8,29.90,West,270,3.5,0.0,64,0.00,SCT,,0.00,WeatherDisplay:10.37,2013-06-16 16:58:00,
2013-06-16 13:03:00,82.0,68.7,29.90,West,270,3.5,0.0,64,0.00,BKN,,0.00,WeatherDisplay:10.37,2013-06-16 17:03:00,
2013-06-16 13:08:00,82.6,68.7,29.90,SW,225,3.5,0.0,63,0.00,BKN,,0.00,WeatherDisplay:10.37,2013-06-16 17:08:00,
2013-06-16 13:13:00,82.6,68.7,29.90,SW,225,3.5,0.0,63,0.00,BKN,,0.00,WeatherDisplay:10.37,2013-06-16 17:13:00,
2013-06-16 13:18:00,82.2,67.4,29.90,SW,225,3.5,3.5,61,0.00,BKN,,0.00,WeatherDisplay:10.37,2013-06-16 17:18:00,
2013-06-16 13:23:00,81.7,66.0,29.89,West,270,4.6,4.6,59,0.00,BKN,,0.00,WeatherDisplay:10.37,2013-06-16 17:23:00,
2013-06-16 13:28:00,81.7,66.9,29.89,West,270,3.5,3.5,61,0.00,BKN,,0.00,WeatherDisplay:10.37,2013-06-16 17:28:00,
2013-06-16 13:33:00,82.0,67.7,29.89,West,270,3.5,3.5,62,0.00,BKN,,0.00,WeatherDisplay:10.37,2013-06-16 17:33:00,
2013-06-16 13:38:00,82.2,67.9,29.89,West,270,3.5,3.5,62,0.00,BKN,,0.00,WeatherDisplay:10.37,2013-06-16 17:38:00,
2013-06-16 13:43:00,82.2,67.9,29.90,SW,225,4.6,4.6,62,0.00,BKN,,0.00,WeatherDisplay:10.37,2013-06-16 17:43:00,
2013-06-16 13:48:00,82.0,68.2,29.90,West,270,2.3,2.3,63,0.00,BKN,,0.00,WeatherDisplay:10.37,2013-06-16 17:48:00,
2013-06-16 13:53:00,82.0,68.7,29.90,West,270,3.5,3.5,64,0.00,BKN,,0.00,WeatherDisplay:10.37,2013-06-16 17:53:00,
2013-06-16 13:58:00,81.9,68.0,29.90,SW,225,4.6,4.6,63,0.00,BKN,,0.00,WeatherDisplay:10.37,2013-06-16 17:58:00,
2013-06-16 14:03:00,81.7,68.3,29.90,NW,315,3.5,3.5,64,0.00,CLR,,0.00,WeatherDisplay:10.37,2013-06-16 18:03:00,
2013-06-16 14:08:00,81.5,68.1,29.90,West,270,4.6,4.6,64,0.00,CLR,,0.00,WeatherDisplay:10.37,2013-06-16 18:08:00,
2013-06-16 14:13:00,81.1,66.4,29.90,West,270,4.6,4.6,61,0.00,CLR,,0.00,WeatherDisplay:10.37,2013-06-16 18:13:00,
2013-06-16 14:18:00,80.6,65.9,29.90,West,270,4.6,4.6,61,0.00,CLR,,0.00,WeatherDisplay:10.37,2013-06-16 18:18:00,
2013-06-16 14:23:00,79.9,65.2,29.90,West,270,5.8,5.8,61,0.00,CLR,,0.00,WeatherDisplay:10.37,2013-06-16 18:23:00,
2013-06-16 14:28:00,79.7,65.5,29.90,NW,315,4.6,4.6,62,0.00,CLR,,0.00,WeatherDisplay:10.37,2013-06-16 18:28:00,
2013-06-16 14:33:00,79.3,65.6,29.90,West,270,5.8,5.8,63,0.00,CLR,,0.00,WeatherDisplay:10.37,2013-06-16 18:33:00,
2013-06-16 14:38:00,79.0,65.3,29.89,West,270,2.3,2.3,63,0.00,CLR,,0.00,WeatherDisplay:10.37,2013-06-16 18:38:00,
2013-06-16 14:43:00,78.8,66.0,29.90,West,270,2.3,0.0,65,0.00,CLR,,0.00,WeatherDisplay:10.37,2013-06-16 18:43:00,
2013-06-16 14:48:00,78.6,65.9,29.90,West,270,4.6,4.6,65,0.00,CLR,,0.00,WeatherDisplay:10.37,2013-06-16 18:48:00,
2013-06-16 14:53:00,78.8,66.0,29.90,SW,225,3.5,3.5,65,0.00,CLR,,0.00,WeatherDisplay:10.37,2013-06-16 18:53:00,
2013-06-16 14:58:00,78.8,66.0,29.90,West,270,3.5,3.5,65,0.00,CLR,,0.00,WeatherDisplay:10.37,2013-06-16 18:58:00,
2013-06-16 15:03:00,79.2,66.4,29.89,SW,225,2.3,2.3,65,0.00,CLR,,0.00,WeatherDisplay:10.37,2013-06-16 19:03:00,
2013-06-16 15:08:00,79.5,66.7,29.89,SW,225,3.5,3.5,65,0.00,CLR,,0.00,WeatherDisplay:10.37,2013-06-16 19:08:00,
2013-06-16 15:13:00,79.9,67.1,29.89,NW,315,2.3,2.3,65,0.00,CLR,,0.00,WeatherDisplay:10.37,2013-06-16 19:13:00,
2013-06-16 15:18:00,80.8,67.5,29.89,West,270,3.5,3.5,64,0.00,FEW,,0.00,WeatherDisplay:10.37,2013-06-16 19:18:00,
2013-06-16 15:23:00,81.5,66.3,29.89,West,270,4.6,4.6,60,0.00,FEW,,0.00,WeatherDisplay:10.37,2013-06-16 19:23:00,
2013-06-16 15:28:00,81.5,66.3,29.88,West,270,3.5,3.5,60,0.00,FEW,,0.00,WeatherDisplay:10.37,2013-06-16 19:28:00,
2013-06-16 15:33:00,81.5,66.3,29.88,NW,315,3.5,3.5,60,0.00,FEW,,0.00,WeatherDisplay:10.37,2013-06-16 19:33:00,
2013-06-16 15:38:00,81.1,66.4,29.88,West,270,3.5,3.5,61,0.00,FEW,,0.00,WeatherDisplay:10.37,2013-06-16 19:38:00,
2013-06-16 15:43:00,81.0,66.7,29.89,West,270,3.5,3.5,62,0.00,FEW,,0.00,WeatherDisplay:10.37,2013-06-16 19:43:00,
2013-06-16 15:48:00,81.7,67.9,29.89,West,270,3.5,3.5,63,0.00,FEW,,0.00,WeatherDisplay:10.37,2013-06-16 19:48:00,
2013-06-16 15:53:00,81.7,66.9,29.89,SW,225,2.3,2.3,61,0.00,FEW,,0.00,WeatherDisplay:10.37,2013-06-16 19:53:00,
2013-06-16 15:58:00,81.5,67.2,29.89,West,270,2.3,2.3,62,0.00,FEW,,0.00,WeatherDisplay:10.37,2013-06-16 19:58:00,
2013-06-16 16:03:00,81.5,67.7,29.88,West,270,2.3,2.3,63,0.00,FEW,,0.00,WeatherDisplay:10.37,2013-06-16 20:03:00,
2013-06-16 16:08:00,81.1,67.3,29.88,SW,225,2.3,2.3,63,0.00,FEW,,0.00,WeatherDisplay:10.37,2013-06-16 20:08:00,
2013-06-16 16:13:00,80.2,67.4,29.88,West,270,3.5,3.5,65,0.00,FEW,,0.00,WeatherDisplay:10.37,2013-06-16 20:13:00,
2013-06-16 16:18:00,79.3,66.5,29.88,East,90,3.5,3.5,65,0.00,FEW,,0.00,WeatherDisplay:10.37,2013-06-16 20:18:00,
2013-06-16 16:23:00,78.6,66.3,29.89,West,270,2.3,2.3,66,0.00,FEW,,0.00,WeatherDisplay:10.37,2013-06-16 20:23:00,
2013-06-16 16:28:00,78.6,66.7,29.89,West,270,3.5,3.5,67,0.00,FEW,,0.00,WeatherDisplay:10.37,2013-06-16 20:28:00,
2013-06-16 16:33:00,78.4,66.1,29.89,West,270,2.3,2.3,66,0.00,FEW,,0.00,WeatherDisplay:10.37,2013-06-16 20:33:00,
2013-06-16 16:38:00,78.4,66.6,29.89,West,270,3.5,3.5,67,0.00,FEW,,0.00,WeatherDisplay:10.37,2013-06-16 20:38:00,
2013-06-16 16:43:00,78.6,66.3,29.89,West,270,2.3,2.3,66,0.00,FEW,,0.00,WeatherDisplay:10.37,2013-06-16 20:43:00,
2013-06-16 16:48:00,79.2,66.8,29.89,West,270,2.3,2.3,66,0.00,FEW,,0.00,WeatherDisplay:10.37,2013-06-16 20:48:00,
2013-06-16 16:53:00,79.5,67.2,29.89,West,270,2.3,2.3,66,0.00,FEW,,0.00,WeatherDisplay:10.37,2013-06-16 20:53:00,
2013-06-16 16:58:00,79.3,66.5,29.89,SW,225,2.3,2.3,65,0.00,FEW,,0.00,WeatherDisplay:10.37,2013-06-16 20:58:00,
2013-06-16 17:03:00,79.3,67.4,29.89,West,270,3.5,3.5,67,0.00,FEW,,0.00,WeatherDisplay:10.37,2013-06-16 21:03:00,
2013-06-16 17:08:00,79.5,67.6,29.89,West,270,2.3,2.3,67,0.00,FEW,,0.00,WeatherDisplay:10.37,2013-06-16 21:08:00,
2013-06-16 17:13:00,79.9,67.9,29.89,West,270,3.5,3.5,67,0.00,FEW,,0.00,WeatherDisplay:10.37,2013-06-16 21:13:00,
2013-06-16 17:18:00,80.1,67.7,29.89,West,270,3.5,3.5,66,0.00,OVC,,0.00,WeatherDisplay:10.37,2013-06-16 21:18:00,
2013-06-16 17:23:00,80.4,67.6,29.89,SW,225,2.3,2.3,65,0.00,OVC,,0.00,WeatherDisplay:10.37,2013-06-16 21:23:00,
2013-06-16 17:28:00,80.8,68.4,29.89,West,270,3.5,3.5,66,0.00,OVC,,0.00,WeatherDisplay:10.37,2013-06-16 21:28:00,
2013-06-16 17:33:00,81.0,68.5,29.89,West,270,2.3,2.3,66,0.00,OVC,,0.00,WeatherDisplay:10.37,2013-06-16 21:33:00,
2013-06-16 17:38:00,81.0,68.1,29.89,West,270,4.6,4.6,65,0.00,OVC,,0.00,WeatherDisplay:10.37,2013-06-16 21:38:00,
2013-06-16 17:43:00,81.0,68.1,29.89,South,180,3.5,3.5,65,0.00,OVC,,0.00,WeatherDisplay:10.37,2013-06-16 21:43:00,
2013-06-16 17:48:00,80.8,67.5,29.89,West,270,3.5,3.5,64,0.00,OVC,,0.00,WeatherDisplay:10.37,2013-06-16 21:48:00,
2013-06-16 17:53:00,80.8,67.0,29.89,West,270,3.5,3.5,63,0.00,OVC,,0.00,WeatherDisplay:10.37,2013-06-16 21:53:00,
2013-06-16 17:58:00,80.8,67.5,29.89,West,270,5.8,5.8,64,0.00,OVC,,0.00,WeatherDisplay:10.37,2013-06-16 21:58:00,
2013-06-16 18:03:00,80.8,66.5,29.90,West,270,3.5,3.5,62,0.00,OVC,,0.00,WeatherDisplay:10.37,2013-06-16 22:03:00,
2013-06-16 18:08:00,80.8,67.0,29.89,West,270,3.5,3.5,63,0.00,OVC,,0.00,WeatherDisplay:10.37,2013-06-16 22:08:00,
2013-06-16 18:13:00,80.8,67.0,29.90,West,270,3.5,3.5,63,0.00,OVC,,0.00,WeatherDisplay:10.37,2013-06-16 22:13:00,
2013-06-16 18:18:00,80.4,66.7,29.90,West,270,3.8,3.8,63,0.00,OVC,,0.00,WeatherDisplay:10.37,2013-06-16 22:18:00,
2013-06-16 18:23:00,80.1,65.4,29.90,West,270,6.9,6.9,61,0.00,OVC,,0.00,WeatherDisplay:10.37,2013-06-16 22:23:00,
2013-06-16 18:29:00,79.9,65.2,29.90,West,270,5.8,5.8,61,0.00,OVC,,0.00,WeatherDisplay:10.37,2013-06-16 22:29:00,
2013-06-16 18:34:00,79.7,66.0,29.90,West,270,3.5,3.5,63,0.00,OVC,,0.00,WeatherDisplay:10.37,2013-06-16 22:34:00,
2013-06-16 18:39:00,79.5,65.8,29.90,West,270,3.5,3.5,63,0.00,OVC,,0.00,WeatherDisplay:10.37,2013-06-16 22:39:00,
2013-06-16 18:44:00,79.5,65.4,29.90,West,270,5.8,5.8,62,0.00,OVC,,0.00,WeatherDisplay:10.37,2013-06-16 22:44:00,
2013-06-16 18:49:00,79.3,65.2,29.90,West,270,3.5,3.5,62,0.00,OVC,,0.00,WeatherDisplay:10.37,2013-06-16 22:49:00,
2013-06-16 18:54:00,79.2,65.5,29.90,West,270,3.5,3.5,63,0.00,OVC,,0.00,WeatherDisplay:10.37,2013-06-16 22:54:00,
2013-06-16 18:59:00,78.8,65.6,29.90,West,270,3.5,3.5,64,0.00,OVC,,0.00,WeatherDisplay:10.37,2013-06-16 22:59:00,
2013-06-16 19:04:00,78.4,65.2,29.90,West,270,4.6,4.6,64,0.00,OVC,,0.00,WeatherDisplay:10.37,2013-06-16 23:04:00,
2013-06-16 19:09:00,78.3,64.6,29.90,West,270,5.8,5.8,63,0.00,OVC,,0.00,WeatherDisplay:10.37,2013-06-16 23:09:00,
2013-06-16 19:14:00,78.3,64.2,29.91,West,270,4.6,4.6,62,0.00,OVC,,0.00,WeatherDisplay:10.37,2013-06-16 23:14:00,
2013-06-16 19:19:00,78.3,64.6,29.90,West,270,5.8,5.8,63,0.00,CLR,,0.00,WeatherDisplay:10.37,2013-06-16 23:19:00,
2013-06-16 19:24:00,78.3,64.6,29.90,West,270,3.5,3.5,63,0.00,CLR,,0.00,WeatherDisplay:10.37,2013-06-16 23:24:00,
2013-06-16 19:29:00,78.3,64.6,29.90,West,270,3.5,3.5,63,0.00,CLR,,0.00,WeatherDisplay:10.37,2013-06-16 23:29:00,
2013-06-16 19:34:00,78.1,64.5,29.90,West,270,3.5,3.5,63,0.00,CLR,,0.00,WeatherDisplay:10.37,2013-06-16 23:34:00,
2013-06-16 19:39:00,78.1,64.5,29.91,West,270,3.5,3.5,63,0.00,CLR,,0.00,WeatherDisplay:10.37,2013-06-16 23:39:00,
2013-06-16 19:44:00,78.1,64.9,29.91,SW,225,3.5,3.5,64,0.00,CLR,,0.00,WeatherDisplay:10.37,2013-06-16 23:44:00,
2013-06-16 19:49:00,77.7,64.6,29.91,West,270,3.5,0.0,64,0.00,CLR,,0.00,WeatherDisplay:10.37,2013-06-16 23:49:00,
2013-06-16 19:54:00,77.5,64.4,29.91,South,180,1.1,1.1,64,0.00,CLR,,0.00,WeatherDisplay:10.37,2013-06-16 23:54:00,
2013-06-16 19:59:00,77.4,64.7,29.91,West,270,2.3,0.0,65,0.00,CLR,,0.00,WeatherDisplay:10.37,2013-06-16 23:59:00,
2013-06-16 20:04:00,77.4,64.7,29.91,West,270,2.3,2.3,65,0.00,CLR,,0.00,WeatherDisplay:10.37,2013-06-17 00:04:00,
2013-06-16 20:09:00,77.2,64.5,29.91,West,270,2.3,2.3,65,0.00,CLR,,0.00,WeatherDisplay:10.37,2013-06-17 00:09:00,
2013-06-16 20:14:00,77.0,64.3,29.91,West,270,2.3,0.0,65,0.00,CLR,,0.00,WeatherDisplay:10.37,2013-06-17 00:14:00,
2013-06-16 20:19:00,77.0,64.8,29.91,West,270,2.3,2.3,66,0.00,CLR,,0.00,WeatherDisplay:10.37,2013-06-17 00:19:00,
2013-06-16 20:24:00,76.8,64.6,29.92,West,270,2.3,2.3,66,0.00,CLR,,0.00,WeatherDisplay:10.37,2013-06-17 00:24:00,
2013-06-16 20:29:00,76.8,64.6,29.91,West,270,1.1,0.0,66,0.00,CLR,,0.00,WeatherDisplay:10.37,2013-06-17 00:29:00,
2013-06-16 20:34:00,76.5,64.3,29.92,West,270,1.1,0.0,66,0.00,CLR,,0.00,WeatherDisplay:10.37,2013-06-17 00:34:00,
2013-06-16 20:39:00,76.3,64.5,29.92,West,270,1.1,0.0,67,0.00,CLR,,0.00,WeatherDisplay:10.37,2013-06-17 00:39:00,
2013-06-16 20:44:00,75.9,64.6,29.92,West,270,0.0,0.0,68,0.00,CLR,,0.00,WeatherDisplay:10.37,2013-06-17 00:44:00,
2013-06-16 20:49:00,75.7,64.4,29.91,West,270,0.0,0.0,68,0.00,CLR,,0.00,WeatherDisplay:10.37,2013-06-17 00:49:00,
2013-06-16 20:54:00,75.6,64.7,29.92,West,270,2.2,2.2,69,0.00,CLR,,0.00,WeatherDisplay:10.37,2013-06-17 00:54:00,
2013-06-16 20:59:00,75.6,64.7,29.91,West,270,1.1,1.1,69,0.00,CLR,,0.00,WeatherDisplay:10.37,2013-06-17 00:59:00,
2013-06-16 21:04:00,75.6,64.7,29.91,West,270,2.3,2.3,69,0.00,CLR,,0.00,WeatherDisplay:10.37,2013-06-17 01:04:00,
2013-06-16 21:09:00,75.4,64.5,29.92,West,270,2.3,2.3,69,0.00,CLR,,0.00,WeatherDisplay:10.37,2013-06-17 01:09:00,
2013-06-16 21:14:00,75.4,64.5,29.92,West,270,2.3,2.3,69,0.00,CLR,,0.00,WeatherDisplay:10.37,2013-06-17 01:14:00,
2013-06-16 21:19:00,75.2,64.3,29.92,SW,225,2.3,0.0,69,0.00,CLR,,0.00,WeatherDisplay:10.37,2013-06-17 01:19:00,
2013-06-16 21:24:00,75.0,64.2,29.92,West,270,1.1,0.0,69,0.00,CLR,,0.00,WeatherDisplay:10.37,2013-06-17 01:24:00,
2013-06-16 21:29:00,74.8,64.0,29.92,SW,225,1.1,0.0,69,0.00,CLR,,0.00,WeatherDisplay:10.37,2013-06-17 01:29:00,
2013-06-16 21:34:00,74.5,63.6,29.93,SW,225,1.1,0.0,69,0.00,CLR,,0.00,WeatherDisplay:10.37,2013-06-17 01:34:00,
2013-06-16 21:39:00,74.3,63.9,29.93,East,90,1.1,0.0,70,0.00,CLR,,0.00,WeatherDisplay:10.37,2013-06-17 01:39:00,
2013-06-16 21:44:00,73.9,63.9,29.94,West,270,0.0,0.0,71,0.00,CLR,,0.00,WeatherDisplay:10.37,2013-06-17 01:44:00,
2013-06-16 21:49:00,73.8,63.8,29.94,West,270,0.0,0.0,71,0.00,CLR,,0.00,WeatherDisplay:10.37,2013-06-17 01:49:00,
2013-06-16 21:54:00,73.4,63.8,29.94,East,90,0.0,0.0,72,0.00,CLR,,0.00,WeatherDisplay:10.37,2013-06-17 01:54:00,
2013-06-16 21:59:00,73.2,63.6,29.94,SW,225,1.1,0.0,72,0.00,CLR,,0.00,WeatherDisplay:10.37,2013-06-17 01:59:00,
2013-06-16 22:04:00,73.2,63.6,29.94,West,270,0.0,0.0,72,0.00,CLR,,0.00,WeatherDisplay:10.37,2013-06-17 02:04:00,
2013-06-16 22:09:00,72.9,63.7,29.94,West,270,0.0,0.0,73,0.00,CLR,,0.00,WeatherDisplay:10.37,2013-06-17 02:09:00,
2013-06-16 22:14:00,72.7,63.5,29.94,West,270,1.1,0.0,73,0.00,CLR,,0.00,WeatherDisplay:10.37,2013-06-17 02:14:00,
2013-06-16 22:19:00,72.7,63.9,29.94,West,270,1.1,0.0,74,0.00,CLR,,0.00,WeatherDisplay:10.37,2013-06-17 02:19:00,
2013-06-16 22:24:00,72.5,63.7,29.94,West,270,0.0,0.0,74,0.00,CLR,,0.00,WeatherDisplay:10.37,2013-06-17 02:24:00,
2013-06-16 22:29:00,72.5,64.1,29.94,SW,225,0.0,0.0,75,0.00,CLR,,0.00,WeatherDisplay:10.37,2013-06-17 02:29:00,
2013-06-16 22:34:00,72.5,64.1,29.94,West,270,1.6,0.0,75,0.00,CLR,,0.00,WeatherDisplay:10.37,2013-06-17 02:34:00,
2013-06-16 22:39:00,72.7,64.3,29.94,West,270,1.6,1.6,75,0.00,CLR,,0.00,WeatherDisplay:10.37,2013-06-17 02:39:00,
2013-06-16 22:44:00,72.7,63.9,29.94,West,270,1.6,1.6,74,0.00,CLR,,0.00,WeatherDisplay:10.37,2013-06-17 02:44:00,
2013-06-16 22:49:00,72.9,64.1,29.94,West,270,2.3,2.3,74,0.00,CLR,,0.00,WeatherDisplay:10.37,2013-06-17 02:49:00,
2013-06-16 22:54:00,72.9,64.1,29.94,West,270,2.3,2.3,74,0.00,CLR,,0.00,WeatherDisplay:10.37,2013-06-17 02:54:00,
2013-06-16 22:59:00,72.9,63.7,29.94,West,270,3.1,3.1,73,0.00,CLR,,0.00,WeatherDisplay:10.37,2013-06-17 02:59:00,
2013-06-16 23:04:00,73.0,63.9,29.94,West,270,3.5,3.5,73,0.00,CLR,,0.00,WeatherDisplay:10.37,2013-06-17 03:04:00,
2013-06-16 23:09:00,73.2,63.6,29.93,West,270,3.5,3.5,72,0.00,CLR,,0.00,WeatherDisplay:10.37,2013-06-17 03:09:00,
2013-06-16 23:14:00,73.2,63.6,29.94,West,270,3.5,3.5,72,0.00,CLR,,0.00,WeatherDisplay:10.37,2013-06-17 03:14:00,
2013-06-16 23:19:00,73.2,63.6,29.93,West,270,2.3,2.3,72,0.00,CLR,,0.00,WeatherDisplay:10.37,2013-06-17 03:19:00,
2013-06-16 23:24:00,73.0,63.5,29.94,West,270,2.3,2.3,72,0.00,CLR,,0.00,WeatherDisplay:10.37,2013-06-17 03:24:00,
2013-06-16 23:29:00,73.0,63.5,29.93,West,270,1.1,1.1,72,0.00,CLR,,0.00,WeatherDisplay:10.37,2013-06-17 03:29:00,
2013-06-16 23:34:00,72.9,63.3,29.93,West,270,1.1,0.0,72,0.00,CLR,,0.00,WeatherDisplay:10.37,2013-06-17 03:34:00,
2013-06-16 23:39:00,72.5,63.0,29.93,West,270,0.0,0.0,72,0.00,CLR,,0.00,WeatherDisplay:10.37,2013-06-17 03:39:00,
2013-06-16 23:44:00,72.3,63.2,29.93,West,270,2.3,2.3,73,0.00,CLR,,0.00,WeatherDisplay:10.37,2013-06-17 03:44:00,
2013-06-16 23:49:00,72.3,63.2,29.93,West,270,2.3,2.3,73,0.00,CLR,,0.00,WeatherDisplay:10.37,2013-06-17 03:49:00,
2013-06-16 23:54:00,72.3,63.2,29.93,West,270,3.5,3.5,73,0.00,CLR,,0.00,WeatherDisplay:10.37,2013-06-17 03:54:00,
2013-06-16 23:59:00,72.3,63.2,29.93,West,270,2.3,2.3,73,0.00,CLR,,0.00,WeatherDisplay:10.37,2013-06-17 03:59:00,